Bolton Field, OH

5:09 AM EDT on May 25, 2017 (GMT -0400)
Bolton

Weather History for KTZR - December, 2011

Change the Weather History Date:

Friday, December 16, 2011

  Actual Average Record
Temperature  
Mean Temperature 32 °F -  
Max Temperature 36 °F 38 °F 60 °F (2012)
Min Temperature 29 °F 26 °F 0 °F (2016)
Degree Days  
Heating Degree Days 33    
Moisture  
Dew Point 26 °F    
Average Humidity 76    
Maximum Humidity 86    
Minimum Humidity 70    
Precipitation  
Precipitation 0.00 in - - ()
Sea Level Pressure  
Sea Level Pressure 30.26 in    
Wind  
Wind Speed 7 mph (WNW)    
Max Wind Speed 14 mph    
Max Gust Speed 21 mph    
Visibility 10 miles    
Events      
Averages and records for this station are not official NWS values.
T = Trace of Precipitation, MM = Missing Value Source: NWS Daily Summary

Daily Weather History Graph

Daily Weather History Graph

Search for Another Location

Airport or City:

Trip Planner

Search our weather history database for the weather conditions in past years. The results will help you decide how hot, cold, wet, or windy it might be!

Date:

Astronomy

Dec. 16, 2011 Rise Set
Actual Time 7:47 AM EST 5:08 PM EST
Civil Twilight 7:16 AM EST 5:39 PM EST
Nautical Twilight 6:42 AM EST 6:13 PM EST
Astronomical Twilight 6:10 AM EST 6:46 PM EST
Moon 11:40 PM EST (12/16) 11:33 AM EST (12/16)
Length of Visible Light 10h 22m
Length of Day
9h 21m
Waning Gibbous, 65% of the Moon is Illuminated
Dec 16
Waning Gibbous
Dec 17
Last Quarter
Dec 24
New
Jan 1
First Quarter
Jan 9
Full

Hourly Weather History & Observations

Time (EST) Temp. Windchill Dew Point Humidity Pressure Visibility Wind Dir Wind Speed Gust Speed Precip Events Conditions
12:15 AM 34.2 °F 26.8 °F 27.3 °F 76% 30.19 in 10.0 mi West 9.2 mph - N/A   Overcast
12:35 AM 34.2 °F 25.7 °F 27.0 °F 75% 30.19 in 10.0 mi West 11.5 mph 20.7 mph N/A   Overcast
12:55 AM 34.2 °F 25.7 °F 26.4 °F 73% 30.19 in 10.0 mi West 11.5 mph 18.4 mph N/A   Overcast
1:15 AM 34.0 °F - 25.9 °F 72% 30.19 in 10.0 mi North - - N/A   Overcast
1:35 AM 33.8 °F - 26.2 °F 74% 30.20 in 10.0 mi North - - N/A   Overcast
1:55 AM 33.8 °F 25.8 °F 25.9 °F 73% 30.21 in 10.0 mi WNW 10.4 mph - N/A   Overcast
2:15 AM 33.8 °F 24.3 °F 25.9 °F 73% 30.22 in 10.0 mi WNW 13.8 mph 19.6 mph N/A   Overcast
2:35 AM 33.8 °F 25.3 °F 26.4 °F 74% 30.23 in 10.0 mi West 11.5 mph 16.1 mph N/A   Overcast
2:55 AM 33.8 °F 25.8 °F 26.6 °F 75% 30.24 in 10.0 mi WNW 10.4 mph - N/A   Overcast
3:15 AM 33.8 °F 27.7 °F 26.1 °F 73% 30.24 in 10.0 mi WNW 6.9 mph - N/A   Overcast
3:35 AM 33.6 °F 28.4 °F 25.7 °F 73% 30.25 in 10.0 mi West 5.8 mph - N/A   Overcast
4:15 AM 32.2 °F 28.9 °F 25.7 °F 77% 30.24 in 10.0 mi WSW 3.5 mph - N/A   Scattered Clouds
4:35 AM 31.1 °F 27.7 °F 25.9 °F 81% 30.25 in 10.0 mi WSW 3.5 mph - N/A   Clear
5:15 AM 31.1 °F 27.7 °F 26.2 °F 82% 30.26 in 10.0 mi SW 3.5 mph - N/A   Mostly Cloudy
5:35 AM 31.1 °F - 26.1 °F 82% 30.26 in 10.0 mi Calm Calm - N/A   Scattered Clouds
5:55 AM 30.9 °F 27.5 °F 25.7 °F 81% 30.27 in 10.0 mi WSW 3.5 mph - N/A   Clear
6:15 AM 30.6 °F - 25.5 °F 82% 30.27 in 10.0 mi Calm Calm - N/A   Clear
6:35 AM 29.5 °F 25.9 °F 25.3 °F 85% 30.28 in 10.0 mi West 3.5 mph - N/A   Clear
6:55 AM 30.7 °F 27.3 °F 25.5 °F 81% 30.27 in 10.0 mi West 3.5 mph - N/A   Clear
7:15 AM 30.0 °F - 25.9 °F 85% 30.28 in 10.0 mi Calm Calm - N/A   Clear
8:50 AM 30.2 °F - 26.6 °F 86% 30.30 in 10.0 mi Calm Calm - N/A   Clear
10:58 AM 33.8 °F 28.6 °F 26.6 °F 75% 30.33 in 10.0 mi WNW 5.8 mph - N/A   Clear
2:50 PM 35.6 °F 29.9 °F 26.6 °F 70% 30.26 in 10.0 mi NNW 6.9 mph - N/A   Clear
3:50 PM 35.6 °F 29.9 °F 26.6 °F 70% 30.26 in 10.0 mi NW 6.9 mph - N/A   Mostly Cloudy
4:50 PM 35.6 °F 30.7 °F 26.6 °F 70% 30.24 in 10.0 mi NW 5.8 mph - N/A   Overcast
5:47 PM 33.8 °F 30.8 °F 26.6 °F 75% 30.25 in 10.0 mi WNW 3.5 mph - N/A   Overcast
6:50 PM 33.8 °F - 28.4 °F 81% 30.27 in 10.0 mi Calm Calm - N/A   Overcast
8:15 PM 33.8 °F 27.7 °F 25.9 °F 73% 30.28 in 10.0 mi WNW 6.9 mph - N/A   Overcast
8:35 PM 33.8 °F 27.0 °F 26.6 °F 75% 30.28 in 10.0 mi WNW 8.1 mph - N/A   Overcast
8:55 PM 33.8 °F 27.7 °F 25.9 °F 73% 30.28 in 10.0 mi WNW 6.9 mph - N/A   Overcast
9:15 PM 33.3 °F 27.1 °F 25.2 °F 72% 30.29 in 10.0 mi West 6.9 mph - N/A   Overcast
9:35 PM 33.1 °F 27.7 °F 25.2 °F 73% 30.29 in 10.0 mi WNW 5.8 mph - N/A   Overcast
9:55 PM 32.9 °F 26.7 °F 25.5 °F 74% 30.29 in 10.0 mi WNW 6.9 mph - N/A   Overcast
10:15 PM 32.5 °F 27.1 °F 25.2 °F 74% 30.28 in 10.0 mi WNW 5.8 mph - N/A   Overcast
10:35 PM 32.2 °F 24.4 °F 24.8 °F 74% 30.29 in 10.0 mi WNW 9.2 mph - N/A   Overcast
10:55 PM 32.0 °F 24.2 °F 23.5 °F 71% 30.29 in 10.0 mi West 9.2 mph - N/A   Overcast
11:15 PM 32.0 °F 26.4 °F 23.9 °F 72% 30.29 in 10.0 mi West 5.8 mph - N/A   Overcast
11:35 PM 31.8 °F 26.2 °F 23.7 °F 72% 30.27 in 10.0 mi West 5.8 mph - N/A   Overcast
11:55 PM 31.5 °F 24.2 °F 23.0 °F 71% 30.26 in 10.0 mi NW 8.1 mph - N/A   Overcast